Terminal Aerodrome Forecast
Issued by NWS

Home | Current Version | Previous Version | Text Only | Print | Product List | Glossary Off
Versions: 1 2 3 4 5 6 7 8 9 10 11 12 13 14 15 16

000
FTUS43 KGRB 232331
TAFCWA
TAF
KCWA 232331Z 2400/2424 20010G16KT P6SM SCT050 BKN150
     FM240100 17004KT P6SM SCT200
     FM240900 13003KT P6SM SCT200
      TEMPO 2409/2413 5SM BR
     FM241400 19008KT P6SM FEW040 SCT200
      AMD LTD TO CLD VIS AND WIND 2403/2411=

USA.gov is the U.S. government's official web portal to all federal, state and local government web resources and services.